Preview of NWS' New Version of Forecast
This preview is not operational and should not be used for support decisions.

Regional Weather Roundup (RWR)

Issued by National Weather Service (NWS)

                            
000
ASUS45 KCYS 212010
RWRWY 

WYOMING REGIONAL WEATHER ROUNDUP
NATIONAL WEATHER SERVICE CHEYENNE WY
200 PM MDT WED AUG 21 2019

NOTE:  "FAIR" INDICATES FEW OR NO CLOUDS BELOW 12,000 FEET
WITH NO SIGNIFICANT WEATHER AND/OR OBSTRUCTIONS TO VISIBILITY.

WYZ001-212100-
...YELLOWSTONE NATIONAL PARK...
  
CITY           SKY/WX    TMP DP  RH WIND       PRES   REMARKS
LK YELLOWSTONE   N/A     68  43  40 CALM      30.30F                  
W YELLOWSTONE  NOT AVBL                                               

$$
WYZ002>013-054>058-071-098>099-212100-
...NORTHERN WYOMING...
  
CITY           SKY/WX    TMP DP  RH WIND       PRES   REMARKS
JACKSON        MOSUNNY   83  36  18 VRB7      30.17F                  
CODY           MOSUNNY   85  50  29 NE9       30.10F HAZE             
GREYBULL       MOSUNNY   88  52  29 E5        30.01F                  
WORLAND        SUNNY     86  53  32 NE6       30.04F                  
SHERIDAN       MOSUNNY   86  56  35 SE14      30.07S                  
BUFFALO        PTSUNNY   76  54  46 S12       30.15S                  
GILLETTE       SUNNY     81  58  45 SE14      30.11F                  
HULETT         FAIR      81  59  47 SW7       30.14F                  
NEWCASTLE      PTSUNNY   73  55  53 S15G25    30.17F                  

$$
WYZ014>020-022>026-101>103-212100-
...CENTRAL WYOMING...
  
CITY           SKY/WX    TMP DP  RH WIND       PRES   REMARKS
BIG PINEY      MOSUNNY   83  24  11 S10       30.23F                  
PINEDALE       MOSUNNY   82  27  13 SE10      30.23F                  
DUBOIS         FAIR      72  43  35 SE13G20   30.24S                  
LANDER         CLOUDY    76  51  41 CALM      30.16F                  
RIVERTON       PTSUNNY   80  49  33 MISG      30.14F                  
CASPER         SUNNY     86  50  28 CALM      30.11F                  
DOUGLAS        MOSUNNY   83  55  38 SE22G29   30.14F                  

$$
WYZ021-027>030-104>119-212100-
...SOUTHERN WYOMING...
  
CITY           SKY/WX    TMP DP  RH WIND       PRES   REMARKS
EVANSTON       SUNNY     88  18   7 SW8G16    30.22F                  
KEMMERER       SUNNY     82  16   8 SW10G25   30.24F                  
FORT BRIDGER   NOT AVBL                                               
ROCK SPRINGS   SUNNY     86  24  10 SW15G26   30.19F                  
DIXON          FAIR      85  21   9 W7        30.22F                  
RAWLINS        SUNNY     86  30  13 VRB3      30.21F                  
SARATOGA       FAIR      82  30  15 CALM      30.25F                  
LARAMIE        MOSUNNY   76  41  28 S8G18     30.26F                  
CHEYENNE       MOSUNNY   79  52  38 SE12G22   30.23F                  
TORRINGTON     SUNNY     80  59  48 E7        30.14F                  
PINE BLUFFS    FAIR      79  50  36 SE10G16   30.21F                  

$$